Tracking 35275 objects as of 8-Sep-2026
HD Live streaming from Space Station
objects crossing your sky now

STARLINK-34163

Track STARLINK-34163 now!
10-day predictions
STARLINK-34163 is classified as:


NORAD ID: 64008
Int'l Code: 2025-101Q
Launch date: May 14, 2025
Source: United States (US)
Launch site: AIR FORCE EASTERN TEST RANGE (AFETR)
Your satellite tracking list
Your tracking list is empty




NASA's NSSDC Master Catalog

Two Line Element Set (TLE):
1 64008U 25101Q   26250.92393036  .00012281  00000-0  45490-3 0  9996
2 64008  43.0001  48.9669 0001647 273.2150  86.8513 15.27590906 74925
Source of the keplerian elements: AFSPC